[[{"header":{"parameterUnit":"m.s-1","parameterCategory":1,"la1":30.2991,"la2":30.254,"lo1":-89.0895,"lo2":-89.0444,"dy":0.0017,"dx":0.0017,"nx":28,"ny":28,"refTime":"2023-04-17T15:00:00:Z","depth":0,"parameterNumber":2,"parameterNumberName":"U-component_of_WINDS"},"data":[0,0,0,0,0,0,0,0,0,0,0,0,0,0,0,0,0,0,0,0,0,0,0,0,0,0,0,0,0,0,0,0,0,0,0,0,0,0,0,0,0,0,0,0,0,0,0,0,0,0,0,0,0,0,0,0,0,0,-5.5033,-5.5035,0,-5.5193,-5.5194,-5.5196,-5.5186,-5.5184,-5.5182,-5.5179,-5.5342,-5.5348,-5.5355,0,0,0,0,0,0,0,0,0,0,0,0,0,-5.472,-5.4726,-5.5033,-5.5035,-5.5037,-5.5192,-5.5194,-5.5197,-5.5187,-5.5184,-5.5181,-5.5178,-5.534,-5.5348,-5.5355,0,0,0,0,0,0,0,0,0,0,0,0,0,-5.4865,-5.4728,-5.5032,-5.505,-5.5054,-5.5192,-5.5194,-5.5197,-5.5187,-5.5184,-5.518,-5.5177,-5.5337,-5.5347,-5.5356,-5.5486,0,0,-5.5386,-5.539,0,0,0,0,0,0,0,0,-5.4857,-5.4877,-5.5046,-5.5049,-5.5053,-5.5166,-5.5144,-5.5294,-5.5188,-5.5137,-5.5179,-5.5175,-5.5286,-5.53,-5.5337,-5.5494,-5.5501,-5.5387,-5.5393,-5.5397,-5.54,0,0,0,0,0,0,0,-5.4847,-5.487,-5.5096,-5.5048,-5.5053,-5.5051,-5.5068,-5.5172,-5.5229,-5.5141,-5.514,-5.516,-5.5288,-5.5328,-5.5341,-5.5503,-5.5387,-5.5395,-5.5401,-5.5405,-5.5777,-5.578,0,0,0,0,0,0,-5.4833,-5.4862,-5.5091,-5.5101,-5.4945,-5.506,-5.5078,-5.5133,-5.5228,-5.5239,-5.5162,-5.5158,-5.5313,-5.533,-5.5347,-5.5505,-5.5397,-5.5406,-5.5412,-5.5773,-5.5777,-5.5782,0,0,0,0,0,0,-5.4826,-5.4854,-5.5084,-5.4981,-5.501,-5.5069,-5.513,-5.5138,-5.5179,-5.5244,-5.5254,-5.5193,-5.5311,-5.5333,-5.5452,-5.5511,-5.5411,-5.5419,-5.5768,-5.5774,-5.578,-5.5823,0,0,0,0,0,0,-5.4817,-5.4851,-5.4901,-5.4982,-5.5016,-5.5187,-5.5134,-5.5144,-5.5196,-5.5192,-5.5276,-5.5286,-5.531,-5.5438,-5.5462,-5.5522,-5.5427,-5.5763,-5.5771,-5.5778,-5.5817,-5.583,-5.5841,0,0,0,0,0,-5.4806,-5.4906,-5.4903,-5.4931,-5.5079,-5.519,-5.5209,-5.5235,-5.52,-5.5251,-5.5293,-5.5284,-5.5501,-5.545,-5.5477,-5.5541,-5.5759,-5.5768,-5.5777,-5.5811,-5.5827,-5.5841,0,0,0,0,0,0,-5.4828,-5.4917,-5.4915,-5.5044,-5.511,-5.5188,-5.5252,-5.5251,-5.5327,-5.532,-5.5349,-5.5368,-5.5488,-5.5527,-5.5468,-5.5673,-5.5626,-5.5641,-5.5642,-5.5658,-5.567,-5.5657,-5.5435,0,0,0,0,0,-5.4848,-5.4931,-5.5004,-5.5111,-5.5145,-5.5193,-5.5242,-5.5257,-5.5326,-5.5353,-5.5404,-5.5472,-5.5555,-5.561,-5.569,-5.5824,-5.5842,-5.5882,-5.5894,-5.5904,-5.5915,-5.599,-5.6008,-5.5811,-5.5811,-5.5811,0,0,-5.489,-5.4949,-5.4999,-5.5117,-5.517,-5.5255,-5.5216,-5.5307,-5.5371,-5.5367,-5.5482,-5.5523,-5.56,-5.5727,-5.5786,-5.5763,-5.5975,-5.5916,-5.5923,-5.5929,-5.6001,-5.602,-5.6036,-5.5818,-5.5816,-5.5815,0,0,-5.5009,-5.5062,-5.5157,-5.5212,-5.5293,-5.5325,-5.5348,-5.5428,-5.5454,-5.5571,-5.557,-5.5647,-5.5791,-5.5846,-5.5893,-5.6037,-5.6031,-5.6063,-5.6126,-5.6198,-5.6214,-5.6228,-5.6278,-5.6296,-5.6075,-5.6075,-5.6076,0,-5.505,-5.5178,-5.5206,-5.5299,-5.5351,-5.5354,-5.545,-5.5502,-5.5605,-5.5641,-5.5615,-5.5797,-5.5849,-5.5989,-5.6025,-5.6063,-5.6091,-5.6052,-5.6209,-5.6224,-5.6237,-5.6286,-5.6305,-5.6079,-5.6078,-5.6078,-5.6078,0,-5.5225,-5.5314,-5.5382,-5.5482,-5.5542,-5.5636,-5.5679,-5.5737,-5.5748,-5.5783,-5.5903,-5.5966,-5.606,-5.6095,-5.6106,-5.6238,-5.6222,-5.6203,-5.6155,-5.6258,-5.6304,-5.6323,-5.6083,-5.6082,-5.6081,-5.608,0,0,-5.5358,-5.5475,-5.5499,-5.5545,-5.5636,-5.5706,-5.5802,-5.5894,-5.5943,-5.6016,-5.6096,-5.622,-5.6203,-5.6257,-5.6275,-5.6338,-5.6448,-5.6312,-5.6314,-5.6333,-5.6598,-5.661,-5.6631,-5.6447,-5.645,-5.6453,-5.6591,0,-5.5485,-5.5653,-5.5683,-5.583,-5.5913,-5.5919,-5.6003,-5.6068,-5.6105,-5.6181,-5.6222,-5.6308,-5.6281,-5.6313,-5.6377,-5.6421,-5.6501,-5.6412,-5.6521,-5.6524,-5.6498,-5.6655,-5.6668,-5.6794,-5.6609,-5.6612,-5.6615,0,-5.5654,-5.5732,-5.5887,-5.5969,-5.6005,-5.608,-5.6168,-5.6241,-5.6317,-5.6339,-5.6401,-5.6412,-5.6512,-5.6463,-5.6601,-5.654,-5.6587,-5.6617,-5.6622,-5.6631,-5.6573,-5.6666,-5.6835,-5.6853,-5.6643,-5.6641,-5.6639,0,-5.5734,-5.5878,-5.599,-5.6029,-5.6128,-5.618,-5.6224,-5.6296,-5.635,-5.6428,-5.6464,-5.6553,-5.6601,-5.667,-5.6705,-5.6666,-5.6842,-5.6795,-5.6862,-5.6862,-5.6896,-5.6893,-5.7072,-5.6931,-5.693,-5.693,-5.693,0,-5.5871,-5.5965,-5.6027,-5.6095,-5.6202,-5.6237,-5.6342,-5.6385,-5.645,-5.6527,-5.6539,-5.6611,-5.6655,-5.6734,-5.6763,-5.6874,-5.6896,-5.6916,-5.6922,-5.6914,-5.6911,-5.6943,-5.6934,-5.6935,-5.6934,-5.6933,-5.6932,0,-5.5976,-5.6021,-5.6143,-5.6228,-5.6252,-5.6327,-5.6399,-5.6467,-5.6505,-5.6603,-5.6628,-5.6688,-5.6782,-5.6826,-5.6942,-5.6961,-5.7087,-5.7088,-5.7061,-5.7062,-5.7127,-5.7119,-5.7331,-5.736,-5.7201,-5.7202,-5.7204,0,-5.6059,-5.6132,-5.6225,-5.6278,-5.6323,-5.6409,-5.6465,-5.6504,-5.6562,-5.6655,-5.6711,-5.6807,-5.6884,-5.7035,-5.7089,-5.7178,-5.718,-5.7249,-5.7194,-5.7183,-5.718,-5.7174,-5.7181,-5.7257,-5.7259,-5.726,-5.7261,0,-5.6201,-5.622,-5.6301,-5.6391,-5.6458,-5.653,-5.6601,-5.6644,-5.6694,-5.676,-5.6857,-5.6917,-5.7037,-5.7131,-5.7225,-5.7271,-5.7275,-5.7279,-5.7299,-5.7289,-5.727,-5.728,-5.7086,-5.7273,-5.7272,-5.7271,-5.727,-5.727,-5.6296,-5.6362,-5.6438,-5.6529,-5.6587,-5.6654,-5.6721,-5.6769,-5.6851,-5.6951,-5.697,-5.7073,-5.7149,-5.7276,-5.7325,-5.7407,-5.7391,-5.742,-5.7427,-5.7433,-5.7436,-5.726,-5.7425,-5.7424,-5.7424,-5.7424,-5.7424,0,-5.6438,-5.6488,-5.6571,-5.6671,-5.6742,-5.6742,-5.6821,-5.6881,-5.6971,-5.7042,-5.7119,-5.7232,-5.7324,-5.7387,-5.7481,-5.7534,-5.7539,-5.7558,-5.7553,-5.7563,-5.7446,-5.7418,-5.7553,-5.7553,-5.7553,-5.7553,-5.7553,-5.7553,-5.6519,-5.6631,-5.666,-5.6801,-5.6851,-5.6952,-5.6997,-5.706,-5.7116,-5.7241,-5.7318,-5.7359,-5.7428,-5.7527,-5.7612,-5.7629,-5.7662,-5.7681,-5.7697,-5.7585,-5.7571,-5.7558,-5.7532,-5.7689,-5.7689,-5.7807,-5.7808,-5.7809]},{"header":{"parameterUnit":"m.s-1","parameterCategory":1,"la1":30.2991,"la2":30.254,"lo1":-89.0895,"lo2":-89.0444,"dy":0.0017,"dx":0.0017,"nx":28,"ny":28,"refTime":"2023-04-17T15:00:00:Z","depth":0,"parameterNumber":3,"parameterNumberName":"V-component_of_WINDS"},"data":[0,0,0,0,0,0,0,0,0,0,0,0,0,0,0,0,0,0,0,0,0,0,0,0,0,0,0,0,0,0,0,0,0,0,0,0,0,0,0,0,0,0,0,0,0,0,0,0,0,0,0,0,0,0,0,0,0,0,4.0804,4.0804,0,4.0782,4.0782,4.0782,4.0758,4.0758,4.0757,4.0757,4.073,4.0729,4.0729,0,0,0,0,0,0,0,0,0,0,0,0,0,4.0824,4.0824,4.0804,4.0804,4.0804,4.0782,4.0782,4.0782,4.0758,4.0758,4.0757,4.0757,4.073,4.073,4.0729,0,0,0,0,0,0,0,0,0,0,0,0,0,4.081,4.0824,4.0804,4.079,4.0788,4.0782,4.0782,4.0781,4.0758,4.0758,4.0757,4.0757,4.073,4.073,4.0729,4.0735,0,0,4.0727,4.0727,0,0,0,0,0,0,0,0,4.0811,4.0809,4.0792,4.0791,4.0789,4.0772,4.0779,4.0766,4.0758,4.0769,4.0757,4.0756,4.0744,4.0742,4.0739,4.0733,4.0732,4.0727,4.0727,4.0726,4.0726,0,0,0,0,0,0,0,4.0812,4.081,4.0795,4.0792,4.079,4.0783,4.0781,4.0776,4.0759,4.0768,4.0767,4.0765,4.0743,4.074,4.0738,4.0732,4.0727,4.0726,4.0726,4.0726,4.0731,4.0732,0,0,0,0,0,0,4.0815,4.0811,4.0796,4.0795,4.0799,4.0783,4.078,4.0778,4.076,4.0756,4.0765,4.0764,4.0741,4.0739,4.0737,4.0744,4.0726,4.0726,4.0725,4.0731,4.0731,4.0732,0,0,0,0,0,0,4.0816,4.0814,4.0797,4.0802,4.08,4.0784,4.0781,4.0778,4.0774,4.0757,4.0754,4.0765,4.0741,4.0738,4.0736,4.0742,4.0725,4.0725,4.073,4.0731,4.0732,4.0756,0,0,0,0,0,0,4.0817,4.0815,4.0817,4.0803,4.08,4.0797,4.0781,4.0778,4.0774,4.0772,4.0756,4.0753,4.074,4.0737,4.0736,4.0741,4.0724,4.0729,4.0731,4.0731,4.0754,4.0757,4.076,0,0,0,0,0,4.0817,4.0823,4.0817,4.0816,4.0802,4.0797,4.0795,4.0782,4.0775,4.0777,4.0766,4.0753,4.0742,4.0737,4.0735,4.0741,4.0729,4.073,4.0731,4.0753,4.0757,4.076,0,0,0,0,0,0,4.0837,4.0821,4.0814,4.0816,4.0809,4.0794,4.0795,4.0786,4.0779,4.0777,4.076,4.0756,4.0757,4.0748,4.0743,4.0746,4.0734,4.0735,4.0751,4.0755,4.0757,4.0759,4.0724,0,0,0,0,0,4.0842,4.084,4.0826,4.0829,4.0826,4.0812,4.0809,4.0799,4.079,4.0786,4.0775,4.0766,4.0761,4.0757,4.0751,4.0754,4.075,4.0757,4.0759,4.0762,4.0762,4.0764,4.0767,4.0736,4.0736,4.0736,0,0,4.085,4.0842,4.0841,4.0832,4.0826,4.0824,4.0809,4.0807,4.0805,4.0786,4.0784,4.0776,4.0764,4.0765,4.0765,4.0758,4.0771,4.0763,4.0765,4.0765,4.0766,4.0769,4.0772,4.0737,4.0737,4.0736,0,0,4.0866,4.086,4.0862,4.0856,4.0847,4.0838,4.0839,4.0826,4.082,4.0819,4.0805,4.0802,4.0793,4.0786,4.0781,4.0797,4.0786,4.0796,4.081,4.0812,4.0815,4.0817,4.0823,4.0826,4.0797,4.0797,4.0797,0,4.0878,4.0876,4.0864,4.0864,4.0861,4.0845,4.0848,4.0842,4.0831,4.0828,4.0822,4.0812,4.0802,4.0802,4.0807,4.0803,4.0803,4.0797,4.0815,4.0817,4.0819,4.0825,4.0827,4.0798,4.0798,4.0798,4.0798,0,4.0892,4.0891,4.0893,4.0885,4.0882,4.0883,4.0871,4.0869,4.0861,4.0853,4.0852,4.0841,4.0834,4.0833,4.0824,4.0832,4.0828,4.0819,4.0806,4.0824,4.0829,4.0831,4.08,4.0799,4.0799,4.0799,0,0,4.0917,4.0904,4.0906,4.0903,4.0892,4.0891,4.0892,4.0886,4.0885,4.0878,4.0879,4.0873,4.0865,4.0859,4.0849,4.0852,4.0867,4.0842,4.0841,4.0847,4.0876,4.0883,4.0886,4.086,4.086,4.086,4.0877,0,4.0931,4.0933,4.0923,4.0927,4.0926,4.0913,4.0914,4.0907,4.09,4.0898,4.0889,4.0886,4.0875,4.0872,4.0874,4.0864,4.0872,4.0863,4.0859,4.0859,4.0862,4.0889,4.0896,4.0912,4.0879,4.0879,4.088,0,4.0947,4.0944,4.0949,4.094,4.0939,4.094,4.0936,4.0934,4.0927,4.0921,4.0917,4.0907,4.0907,4.0896,4.0896,4.089,4.0888,4.0883,4.0884,4.0882,4.087,4.0888,4.0917,4.092,4.0883,4.0882,4.0882,0,4.0966,4.0963,4.0965,4.0963,4.0953,4.0954,4.095,4.0943,4.0941,4.0936,4.0935,4.093,4.0927,4.0923,4.0912,4.0905,4.0914,4.0901,4.0909,4.0909,4.091,4.091,4.094,4.091,4.091,4.091,4.091,0,4.0983,4.0986,4.0974,4.0976,4.0979,4.0968,4.0972,4.0966,4.096,4.096,4.0948,4.0948,4.0934,4.0932,4.0923,4.0925,4.0924,4.0919,4.0917,4.092,4.0921,4.0918,4.0917,4.091,4.091,4.091,4.091,0,4.1004,4.0996,4.0998,4.099,4.0988,4.0991,4.0983,4.0984,4.0978,4.0978,4.0977,4.0966,4.0964,4.0953,4.0947,4.0942,4.0947,4.0942,4.0949,4.0948,4.0956,4.0956,4.0985,4.0988,4.0956,4.0956,4.0956,0,4.1015,4.1018,4.101,4.1011,4.1007,4.1007,4.1006,4.0996,4.0995,4.0988,4.099,4.0988,4.0985,4.0982,4.0973,4.0969,4.0964,4.0975,4.0963,4.0968,4.0965,4.0965,4.0966,4.0977,4.0977,4.0978,4.0978,0,4.1036,4.1032,4.1031,4.103,4.1029,4.1027,4.1024,4.1024,4.1013,4.1013,4.1011,4.101,4.1006,4.1003,4.0999,4.0993,4.0984,4.0982,4.0984,4.0987,4.0992,4.099,4.0956,4.0981,4.0981,4.098,4.098,4.098,4.1052,4.1055,4.1051,4.1051,4.1048,4.1046,4.1047,4.1042,4.1041,4.1038,4.1032,4.1032,4.1026,4.1019,4.1015,4.1015,4.1009,4.1011,4.1012,4.1013,4.1015,4.0992,4.1014,4.1014,4.1014,4.1014,4.1014,0,4.1073,4.107,4.1071,4.1068,4.1068,4.1061,4.1058,4.1058,4.1059,4.1055,4.1054,4.1053,4.1052,4.1044,4.1041,4.1042,4.1038,4.1042,4.1042,4.1041,4.102,4.1019,4.1046,4.1046,4.1046,4.1046,4.1046,4.1046,4.1084,4.1088,4.1084,4.1088,4.1084,4.1086,4.1085,4.1083,4.108,4.1081,4.108,4.1075,4.107,4.1068,4.1066,4.1064,4.1063,4.1069,4.1065,4.1045,4.1042,4.1039,4.1038,4.1069,4.1069,4.1086,4.1086,4.1087]}]]